Hourly Weather Roundup
Issued by NWS Central Illinois

Home | Current Version | Previous Version | Text Only | Print | Product List | Glossary On
Versions: 1 2 3 4 5 6 7 8 9 10 11 12 13 14 15 16 17 18 19 20 21 22 23 24 25 26 27 28 29 30 31 32 33 34 35 36 37 38 39 40 41 42 43 44 45 46 47 48 49 50
000
NZUS43 KILX 250210
HWRILX

Area Weather Roundup
National Weather Service Lincoln IL
800 PM CST FRI NOV 24 2017

NOTE:  "FAIR" indicates few or no clouds below 12,000 feet, with
       no sigificant weather and/or obstructions to visibility.


CITY           SKY/WX    TMP DP  RH WIND       PRES   REMARKS
Bloomington    CLOUDY    52  38  58 SW17      29.58R
Champaign      MOCLDY    51  37  58 S18       29.61S
Danville       CLEAR     51  35  53 S22G28    29.59F
Decatur        CLOUDY    54  37  52 S21G30    29.62S
Effingham      PTCLDY    54  37  53 S8        29.71R
Flora          CLEAR     54  37  52 S14       29.70R
Galesburg      CLOUDY    53  42  67 W7        29.61R
Jacksonville   CLOUDY    56  37  47 MISG      29.61R
Lacon          PTCLDY    58  39  49 W7        29.56R
Lawrenceville  CLEAR     51  35  54 S16       29.72R
Litchfield     CLOUDY    51  39  63 S13       29.65S
$$


CITY           SKY/WX    TMP DP  RH WIND       PRES   REMARKS
Lincoln        CLOUDY    55  40  58 S7        29.59S
Macomb         CLOUDY    54  41  62 W7        29.64R
Mattoon        PTCLDY    53  36  52 S17G24    29.65R
Mt Carmel AP   CLEAR     54  33  44 S17G24    29.71S
Olney-Noble AP PTCLDY    53  31  43 S12G18    29.71R
Paris AP       CLEAR     50  37  59 S17       29.67R
Peoria         CLOUDY    58  39  49 W9        29.59R
Pontiac        CLOUDY    55  39  56 SW18G24   29.55S
Rantoul        PTCLDY    52  39  62 S13       29.60F
Robinson       CLEAR     51  34  53 S15       29.70S
Springfield    PTCLDY    58  39  49 S14       29.61R
Taylorville    CLOUDY    53  38  55 S16       29.63S
$$

...REGIONAL REPORTS...


CITY           SKY/WX    TMP DP  RH WIND       PRES   REMARKS
Chicago O`Hare CLOUDY    55  40  56 SW18      29.49R
Kankakee       CLOUDY    51  37  56 SW18      29.56S
Moline         CLEAR     58  41  53 W12       29.58R
Mount Sterling PTCLDY    58  39  49 NW14      29.63R
Mount Vernon   PTCLDY    55  37  50 SW17G25   29.72R
Pittsfield     CLOUDY    63  38  40 SW8       29.63S
Quincy         PTCLDY    59  40  49 NW10      29.65R
Rockford       CLOUDY    52  40  63 W6        29.53R
$$


CITY           SKY/WX    TMP DP  RH WIND       PRES   REMARKS
Burlington     PTCLDY    57  43  59 NW7       29.62R
Cedar Rapids   CLOUDY    54  42  64 NW16G23   29.62R
Des Moines     CLEAR     55  41  59 NW16G23   29.74R
Kirksville     PTCLDY    56  42  59 NW7       29.70R
Ottumwa        PTCLDY    58  40  51 NW20G26   29.68R
St Louis       MOCLDY    65  36  34 SW12      29.66R
$$


CITY           SKY/WX    TMP DP  RH WIND       PRES   REMARKS
Terre Haute    CLEAR     52  32  46 S15G25    29.69R
Evansville     CLEAR     53  32  44 S13       29.77S
Indianapolis   PTCLDY    51  30  44 S16       29.68F
Lafayette      CLEAR     51  34  52 S9        29.62R
Madison        CLOUDY    56  41  57 W7        29.48R
Milwaukee      CLOUDY    57  40  52 W8        29.45R
$$





USA.gov is the U.S. government's official web portal to all federal, state and local government web resources and services.